Location: Untermarchtal
(48.2403°N, 9.6117°E)
Time: 03:19:50
(UTC+02:00)

ISS - Pass Details

Date: 03 October 2020
Orbit: 418 x 420 km, 51.6° (Epoch: 20 October)

Event Time Altitude Azimuth Distance (km) Brightness Sun altitude
Rises 19:30:37 0° 291° (WNW) 2,369 1.6 -6.6°
Reaches altitude 10° 19:32:43 10° 293° (WNW) 1,504 0.4 -7.0°
Maximum altitude 19:36:06 79° 20° (NNE) 433 -3.7 -7.5°
Enters shadow 19:39:26 10° 108° (ESE) 1,490 -1.6 -8.1°
